Regional Weather Roundup
Issued by NWS

Home | Current Version | Previous Version | Graphics & Text | Print | Product List | Glossary On
Versions: 1 2 3 4 5 6 7 8 9 10 11 12 13 14 15 16 17 18 19 20 21 22 23 24 25 26 27 28 29 30 31 32 33 34 35 36 37 38 39 40 41 42 43 44 45 46 47 48 49 50
000
ASUS43 KLMK 061602
RWRKY
KENTUCKY REGIONAL WEATHER ROUNDUP
NATIONAL WEATHER SERVICE LOUISVILLE KY
1200 PM EDT WED MAY 06 2015

NOTE "FAIR" INDICATES FEW OR NO CLOUDS BELOW 12,000 FEET
WITH NO SIGNIFICANT WEATHER AND/OR OBSTRUCTIONS TO VISIBILITY.

KYZ001>023-026-027-061>063-070>075-061700-
WESTERN AND SOUTH CENTRAL KENTUCKY

CITY           SKY/WX    TMP DP  RH WIND       PRES   REMARKS
PADUCAH        SUNNY     81  57  43 S9        30.17F
HENDERSON      PTSUNNY   81  54  39 W7        30.18S
OWENSBORO      MOSUNNY   82  58  43 CALM      30.21S
HOPKINSVILLE   MOSUNNY   78  58  50 S7        30.20S
BOWLING GREEN  MOSUNNY   80  58  46 SW7       30.21S
GLASGOW        NOT AVBL
$$

KYZ024-025-028>034-038-045-046-053-061700-
NORTH CENTRAL KENTUCKY

CITY           SKY/WX    TMP DP  RH WIND       PRES   REMARKS
LOUISVILLE/SDF MOSUNNY   83  56  39 CALM      30.20F
LOUISVILLE/LOU MOSUNNY   82  55  39 NW5       30.21F
FORT KNOX      MOSUNNY   80  56  43 E2        30.20S
$$

KYZ035>037-039>044-047>052-055>060-089>105-061700-
NORTHEAST KENTUCKY

CITY           SKY/WX    TMP DP  RH WIND       PRES   REMARKS
LEXINGTON      PTSUNNY   80  55  42 E3        30.23S
COVINGTON      MOSUNNY   81  54  39 W6        30.22S
FRANKFORT      MOSUNNY   81  52  36 E6        30.21F
$$

KYZ054-064>069-076>088-106>120-061700-
SOUTHEAST KENTUCKY

CITY           SKY/WX    TMP DP  RH WIND       PRES   REMARKS
JACKSON        SUNNY     77  55  46 SE5       30.25S
LONDON         MOSUNNY   79  54  41 VRB3      30.23F
SOMERSET       NOT AVBL
MIDDLESBORO    SUNNY     76  57  50 CALM      30.24F
MONTICELLO     SUNNY     81  58  45 VRB6      30.25S
$$



USA.gov is the U.S. government's official web portal to all federal, state and local government web resources and services.